[Iaude] MPEC L34: 2017 DV165 [a=42.33,e=0.04,i=5.2,H=8.5]
    mpec at cfa.harvard.edu 
    mpec at cfa.harvard.edu
       
    Mon Jun  3 13:04:34 EDT 2024
    
    
  
M.P.E.C. 2024-L34                                  Issued 2024 June 3, 17:01 UT
     The Minor Planet Electronic Circulars contain information on unusual
         minor planets, routine data on comets and natural satellites,
         and occasional editorial announcements.  They are published
    on behalf of Division F of the International Astronomical Union by the
          Minor Planet Center, Smithsonian Astrophysical Observatory,
                          Cambridge, MA 02138, U.S.A.
			  
             Prepared using the Tamkin Foundation Computer Network
                              MPC at CFA.HARVARD.EDU
            URL https://www.minorplanetcenter.net/    ISSN 1523-6714
                                   2017 DV165                                   
Observations:
     K17DG5V 1C2016 04 04.51520112 39 41.06 -00 07 45.7                WEL034T09
     K17DG5V 1C2016 04 04.55790112 39 40.85 -00 07 44.8                WEL034T09
     K17DG5V*4C2017 02 21.49208 12 47 01.91 -01 00 35.5          23.8 z1EL034T09
     K17DG5V 4C2017 02 21.51504 12 47 01.82 -01 00 34.5          24.5 z1EL034T09
     K17DG5V 4C2017 02 21.53924 12 47 01.79 -01 00 34.5          24.3 z1EL034T09
     K17DG5V 4C2017 02 21.56076 12 47 01.69 -01 00 33.8          24.8 z1EL034T09
     K17DG5V 4C2017 02 21.58766 12 47 01.60 -01 00 33.3          24.6 z1EL034T09
     K17DG5V 4C2017 02 21.60910 12 47 01.55 -01 00 32.7          24.1 z1EL034T09
     K17DG5V 4C2017 02 23.53285 12 46 55.33 -00 59 48.2          25.4 r1EL034T09
     K17DG5V 4C2017 02 23.56973 12 46 55.23 -00 59 47.5          25.5 r1EL034T09
     K17DG5V 4C2017 02 23.60376 12 46 55.08 -00 59 46.0          25.7 r1EL034T09
     K17DG5V 1C2017 04 27.38087612 42 38.55 -00 32 54.3                WEL034T09
     K17DG5V 1C2017 04 27.40845112 42 38.44 -00 32 53.7                WEL034T09
     K17DG5V 1C2019 04 06.50169712 53 12.72 -01 50 08.1                WEL034T09
Observer details:
T09 Subaru Telescope, Maunakea.  Observers , H. Aihara, Y. AlSayyad, M. Ando,
    R. Armstrong, J. Bosch, E. Egami, H. Furusawa, J. Furusawa, S. Harasawa,
    Y. Harikane, B.-C. Hsieh, H. Ikeda, K. Ito, I. Iwata, T. Kodama, M. Koike,
    M. Kokubo, Y. Komiyama, X. Li, Y. Liang, Y.-T. Lin, R. H. Lupton, N. B.
    Lust, L. A. MacArthur, K. Mawatari, S. Mineo, H. Miyatake, S. Miyazaki, S.
    More, T. Morishima, H. Murayama, K. Nakajima, F. Nakata, A. J. Nishizawa,
    M. Oguri, N. Okabe, Y. Okura, Y. Ono, K. Osato, M. Ouchi, Y.-C. Pan, A. A.
    Plazas Malagon, P. A. Price, S. L. Reed, E. S. Rykoff, T. Shibuya, M.
    Simunovic, M. A. Strauss, K. Sugimori, Y. Suto, N. Suzuki, M. Takada, Y.
    Takagi, T. Takata, S. Takita, M. Tanaka, S. Tang, D. S. Taranu, T. Terai,
    Y. Toba, E. L. Turner, H. Uchiyama, B. Vijarnwannaluk, C. Z. Waters, Y.
    Yamada, N. Yamamoto, T. Yamashita.  Measurers S. Deen, A. Yamauchi.  8.3-m
    Subaru Telescope + CCD, 8.2-m f/2.0 reflector + CCD(HSC).
Orbital elements:
2017 DV165                                                                      
Epoch 2024 Mar. 31.0 TT = JDT 2460400.5                 Alexandersen            
M 231.67047              (2000.0)            P               Q                  
n   0.00357816     Peri.  276.13632     +0.86880471     +0.48953474             
a  42.3346821      Node    54.57757     -0.41049318     +0.79609776             
e   0.0375931      Incl.    5.23778     -0.27690022     +0.35578659             
P 275              H    8.58          G   0.15           U   6                  
Residuals in seconds of arc
160404 T09  0.1+  0.0     170221 T09  0.0   0.1+    170223 T09  0.3-  0.4+
160404 T09  0.2-  0.2-    170221 T09  0.0   0.0     170427 T09  0.0   0.1-
170221 T09  0.1-  0.0     170221 T09  0.2+  0.1+    170427 T09  0.0   0.0
170221 T09  0.3-  0.5+    170223 T09  0.1-  0.1-    190406 T09  0.0   0.1-
170221 T09  0.4+  0.1-    170223 T09  0.3+  0.3-
Ephemeris:
2017 DV165               a,e,i = 42.33, 0.04, 5                  q = 40.7432
Date    TT    R. A. (2000) Decl.     Delta      r    Elong.  Phase     V
2024 05 04    13 13 58.6 -04 29 23  42.4395 43.3547   154.9     0.6    25.0
...
2024 05 19    13 13 03.7 -04 24 41  42.5710 43.3536   140.2     0.9    25.1
...
2024 05 27    13 12 39.3 -04 22 45  42.6624 43.3530   132.5     1.0    25.1
...
2024 06 02    13 12 23.6 -04 21 37  42.7393 43.3526   126.7     1.1    25.1
2024 06 03    13 12 21.2 -04 21 27  42.7528 43.3525   125.7     1.1    25.1
2024 06 04    13 12 18.9 -04 21 18  42.7664 43.3524   124.7     1.1    25.1
...
2024 06 10    13 12 06.6 -04 20 33  42.8514 43.3520   119.0     1.2    25.1
...
2024 06 18    13 11 54.4 -04 20 00  42.9725 43.3514   111.3     1.3    25.1
...
2024 07 03    13 11 45.4 -04 20 26  43.2154 43.3503    97.0     1.3    25.1
M. P. C. Staff               (C) Copyright 2024 MPC           M.P.E.C. 2024-L34
    
    
More information about the Iaude
mailing list